WXM80 ListenWXM80 Stop

You find our weather info also at:

UK Metoffice

WeatherCloud

Weather Underground

Northeastern Weather Network

AWEKAS

Citizen Weather Observer Program (CWOP)

HAMweather, WeatherForYou, PWS Weather


Weather Underground History page Text

Daily Summary for May 17, 2017 Units:  English    Metric   Both
« Previous Day
Next Day »
Daily Weekly Monthly Yearly Custom
  High: Low: Average:
Temperature: 91.9 °F 56.2 °F 75.3 °F
Dew Point: 67.3 °F 50.9 °F 60.7 °F
Humidity: 89 % 41 % 63 %
Wind Speed: 7.0 mph 0.0 mph 2.1 mph
Wind Gust: 13.0 mph - -
Wind:- - SW
Pressure: 29.98 in 29.84 in -
Precipitation: 0.00 in    
Historical Graphs
 
 
Tabular Data for May 17, 2017
Time Temperature Dew Point Pressure Wind Wind Speed Wind Gust Humidity Rainfall Rate (Hourly)
00:04 61.3 °F 51.0 °F 29.94 in Calm     69 % 0.00 in
00:09 61.3 °F 51.4 °F 29.94 in Calm   1.2 mph 70 % 0.00 in
00:14 61.3 °F 51.4 °F 29.94 in SW 0.5 mph 1.2 mph 70 % 0.00 in
00:19 61.2 °F 51.3 °F 29.94 in SW 0.9 mph 1.2 mph 70 % 0.00 in
00:24 61.2 °F 51.3 °F 29.94 in SW 0.3 mph 2.0 mph 70 % 0.00 in
00:29 61.2 °F 51.7 °F 29.94 in SW 1.3 mph 2.3 mph 71 % 0.00 in
00:34 61.1 °F 51.6 °F 29.94 in Calm   1.2 mph 71 % 0.00 in
00:39 61.1 °F 51.6 °F 29.94 in SW 0.6 mph 2.0 mph 71 % 0.00 in
00:44 61.1 °F 51.6 °F 29.94 in Calm   2.3 mph 71 % 0.00 in
00:49 61.1 °F 51.6 °F 29.94 in SW 0.5 mph 1.2 mph 71 % 0.00 in
00:54 61.0 °F 51.5 °F 29.94 in SW 0.2 mph 1.2 mph 71 % 0.00 in
00:59 60.9 °F 51.4 °F 29.94 in Calm   1.0 mph 71 % 0.00 in
01:04 60.8 °F 51.0 °F 29.94 in SW 0.1 mph 1.2 mph 70 % 0.00 in
01:09 60.7 °F 51.2 °F 29.94 in SW 0.2 mph 1.2 mph 71 % 0.00 in
01:11 60.7 °F 51.2 °F 29.94 in SW 0.2 mph 1.2 mph 71 % 0.00 in
01:15 60.6 °F 51.1 °F 29.94 in SW 0.1 mph 1.2 mph 71 % 0.00 in
01:21 60.5 °F 51.1 °F 29.94 in Calm   1.0 mph 71 % 0.00 in
01:26 60.5 °F 51.0 °F 29.94 in Calm     71 % 0.00 in
01:31 60.4 °F 51.0 °F 29.94 in Calm     71 % 0.00 in
01:36 60.4 °F 50.9 °F 29.94 in Calm     71 % 0.00 in
01:41 60.3 °F 51.2 °F 29.94 in Calm     72 % 0.00 in
01:46 60.2 °F 51.1 °F 29.94 in Calm     72 % 0.00 in
01:51 60.2 °F 51.1 °F 29.94 in Calm     72 % 0.00 in
01:56 60.1 °F 51.4 °F 29.94 in Calm     73 % 0.00 in
02:01 60.1 °F 51.8 °F 29.94 in Calm   1.2 mph 74 % 0.00 in
02:06 60.0 °F 52.1 °F 29.94 in Calm   1.0 mph 75 % 0.00 in
02:11 60.0 °F 52.1 °F 29.94 in Calm   1.0 mph 75 % 0.00 in
02:21 59.9 °F 52.0 °F 29.94 in Calm     75 % 0.00 in
02:25 59.8 °F 51.9 °F 29.94 in WSW 1.1 mph 2.3 mph 75 % 0.00 in
02:30 59.8 °F 52.2 °F 29.94 in WSW 1.0 mph 2.0 mph 76 % 0.00 in
02:35 59.8 °F 52.2 °F 29.94 in SW 0.9 mph 3.5 mph 76 % 0.00 in
02:41 59.9 °F 52.0 °F 29.94 in WSW 1.0 mph 3.0 mph 75 % 0.00 in
02:46 60.0 °F 52.1 °F 29.94 in Calm   2.0 mph 75 % 0.00 in
02:51 60.1 °F 52.1 °F 29.94 in SSW 0.1 mph 3.5 mph 75 % 0.00 in
02:56 60.2 °F 52.3 °F 29.94 in SW 1.0 mph 4.0 mph 75 % 0.00 in
03:01 60.4 °F 52.4 °F 29.94 in WSW 0.1 mph 1.2 mph 75 % 0.00 in
03:06 60.5 °F 52.1 °F 29.94 in Calm   4.0 mph 74 % 0.00 in
03:11 60.5 °F 52.2 °F 29.95 in Calm     74 % 0.00 in
03:16 60.6 °F 52.3 °F 29.95 in Calm   1.0 mph 74 % 0.00 in
03:21 60.6 °F 51.9 °F 29.94 in Calm     73 % 0.00 in
03:26 60.7 °F 52.3 °F 29.95 in Calm     74 % 0.00 in
03:31 60.6 °F 52.3 °F 29.95 in Calm     74 % 0.00 in
03:36 60.6 °F 51.9 °F 29.95 in Calm     73 % 0.00 in
03:41 60.5 °F 51.8 °F 29.95 in Calm     73 % 0.00 in
03:46 60.4 °F 52.1 °F 29.95 in Calm     74 % 0.00 in
03:51 60.3 °F 52.0 °F 29.95 in Calm     74 % 0.00 in
03:56 60.2 °F 52.2 °F 29.95 in Calm     75 % 0.00 in
04:01 60.0 °F 52.1 °F 29.95 in Calm     75 % 0.00 in
04:06 59.9 °F 52.0 °F 29.95 in Calm     75 % 0.00 in
04:11 59.7 °F 52.1 °F 29.95 in Calm     76 % 0.00 in
04:16 59.6 °F 52.4 °F 29.96 in Calm     77 % 0.00 in
04:21 59.4 °F 52.5 °F 29.96 in Calm     78 % 0.00 in
04:26 59.2 °F 52.3 °F 29.96 in Calm     78 % 0.00 in
04:31 59.0 °F 52.1 °F 29.96 in Calm     78 % 0.00 in
04:36 58.7 °F 52.2 °F 29.96 in Calm     79 % 0.00 in
04:41 58.4 °F 52.3 °F 29.97 in Calm     80 % 0.00 in
04:46 58.2 °F 52.4 °F 29.96 in Calm     81 % 0.00 in
04:51 58.0 °F 52.2 °F 29.96 in Calm     81 % 0.00 in
04:56 57.8 °F 52.0 °F 29.96 in Calm     81 % 0.00 in
05:01 57.6 °F 51.8 °F 29.96 in Calm     81 % 0.00 in
05:06 57.4 °F 51.6 °F 29.96 in Calm     81 % 0.00 in
05:11 57.2 °F 51.4 °F 29.96 in Calm     81 % 0.00 in
05:16 57.0 °F 51.6 °F 29.96 in Calm     82 % 0.00 in
05:21 56.9 °F 51.5 °F 29.96 in Calm     82 % 0.00 in
05:26 56.8 °F 51.4 °F 29.96 in Calm     82 % 0.00 in
05:31 56.6 °F 51.2 °F 29.97 in Calm     82 % 0.00 in
05:41 56.4 °F 51.3 °F 29.97 in Calm     83 % 0.00 in
05:46 56.4 °F 51.6 °F 29.97 in Calm     84 % 0.00 in
05:51 56.3 °F 51.8 °F 29.97 in Calm     85 % 0.00 in
05:57 56.2 °F 52.1 °F 29.97 in Calm     86 % 0.00 in
06:01 56.2 °F 52.1 °F 29.97 in Calm     86 % 0.00 in
06:07 56.2 °F 52.4 °F 29.97 in Calm     87 % 0.00 in
06:12 56.2 °F 52.4 °F 29.97 in Calm     87 % 0.00 in
06:17 56.3 °F 52.8 °F 29.97 in Calm     88 % 0.00 in
06:22 56.4 °F 52.9 °F 29.97 in Calm   2.3 mph 88 % 0.00 in
06:27 56.6 °F 53.4 °F 29.97 in SW 0.8 mph 3.0 mph 89 % 0.00 in
06:32 57.0 °F 53.8 °F 29.97 in SSW 1.2 mph 3.5 mph 89 % 0.00 in
06:37 57.4 °F 54.2 °F 29.97 in SW 2.1 mph 3.5 mph 89 % 0.00 in
06:42 58.0 °F 54.5 °F 29.97 in WSW 1.4 mph 3.5 mph 88 % 0.00 in
06:47 58.6 °F 54.7 °F 29.97 in Calm   1.2 mph 87 % 0.00 in
06:52 59.3 °F 55.1 °F 29.97 in SW 0.7 mph 3.5 mph 86 % 0.00 in
06:57 60.0 °F 55.5 °F 29.97 in SW 0.9 mph 2.3 mph 85 % 0.00 in
07:02 60.8 °F 55.6 °F 29.97 in WSW 0.7 mph 3.5 mph 83 % 0.00 in
07:07 61.6 °F 56.0 °F 29.97 in SW 0.6 mph 3.5 mph 82 % 0.00 in
07:12 62.5 °F 56.2 °F 29.97 in WSW 1.4 mph 3.5 mph 80 % 0.00 in
07:17 63.4 °F 56.8 °F 29.97 in WSW 1.0 mph 3.5 mph 79 % 0.00 in
07:22 64.2 °F 56.8 °F 29.97 in SW 0.8 mph 3.5 mph 77 % 0.00 in
07:27 65.0 °F 56.9 °F 29.97 in WSW 3.2 mph 5.8 mph 75 % 0.00 in
07:32 65.6 °F 57.1 °F 29.98 in West 2.5 mph 4.6 mph 74 % 0.00 in
07:37 66.3 °F 57.0 °F 29.97 in SW 2.0 mph 5.8 mph 72 % 0.00 in
07:42 66.8 °F 57.5 °F 29.97 in SSW 1.0 mph 3.5 mph 72 % 0.00 in
07:47 67.2 °F 57.1 °F 29.97 in WSW 2.8 mph 5.0 mph 70 % 0.00 in
07:52 67.6 °F 57.5 °F 29.97 in SW 2.3 mph 3.5 mph 70 % 0.00 in
07:57 67.9 °F 57.4 °F 29.97 in SSW 2.8 mph 4.0 mph 69 % 0.00 in
08:02 68.4 °F 57.4 °F 29.97 in SSW 2.7 mph 6.9 mph 68 % 0.00 in
08:07 68.8 °F 57.4 °F 29.97 in SW 1.9 mph 5.8 mph 67 % 0.00 in
08:12 69.3 °F 57.5 °F 29.97 in WSW 3.2 mph 11.5 mph 66 % 0.00 in
08:18 69.8 °F 57.9 °F 29.97 in WSW 1.1 mph 3.5 mph 66 % 0.00 in
08:23 70.3 °F 58.4 °F 29.97 in Calm   2.3 mph 66 % 0.00 in
08:28 70.8 °F 58.9 °F 29.97 in West 0.9 mph 4.6 mph 66 % 0.00 in
08:33 71.3 °F 58.5 °F 29.97 in SW 2.9 mph 6.9 mph 64 % 0.00 in
08:38 71.7 °F 58.9 °F 29.97 in SW 4.5 mph 5.8 mph 64 % 0.00 in
08:43 72.1 °F 58.4 °F 29.98 in SSW 4.7 mph 8.1 mph 62 % 0.00 in
08:48 72.4 °F 59.1 °F 29.97 in West 3.0 mph 8.1 mph 63 % 0.00 in
08:53 72.7 °F 59.4 °F 29.97 in West 3.5 mph 10.4 mph 63 % 0.00 in
08:58 73.1 °F 59.8 °F 29.97 in WSW 0.9 mph 3.5 mph 63 % 0.00 in
09:03 73.5 °F 59.2 °F 29.97 in SSW 4.0 mph 6.9 mph 61 % 0.00 in
09:08 73.9 °F 59.1 °F 29.97 in WSW 3.6 mph 4.6 mph 60 % 0.00 in
09:13 74.3 °F 59.5 °F 29.97 in WSW 3.0 mph 5.8 mph 60 % 0.00 in
09:18 74.7 °F 59.4 °F 29.97 in SSW 1.1 mph 5.8 mph 59 % 0.00 in
09:23 75.1 °F 59.3 °F 29.96 in SSW 4.1 mph 6.9 mph 58 % 0.00 in
09:28 75.6 °F 60.3 °F 29.97 in SW 4.4 mph 10.4 mph 59 % 0.00 in
09:33 76.1 °F 60.2 °F 29.97 in SSW 2.8 mph 7.0 mph 58 % 0.00 in
09:38 76.6 °F 60.2 °F 29.96 in WNW 1.2 mph 11.5 mph 57 % 0.00 in
09:43 77.1 °F 60.2 °F 29.96 in SW 3.5 mph 10.4 mph 56 % 0.00 in
09:48 77.7 °F 61.7 °F 29.96 in SW 1.3 mph 4.0 mph 58 % 0.00 in
09:53 78.3 °F 61.8 °F 29.96 in West 1.5 mph 3.5 mph 57 % 0.00 in
09:58 79.0 °F 62.0 °F 29.96 in NW 0.8 mph 2.3 mph 56 % 0.00 in
10:03 79.4 °F 61.8 °F 29.96 in WNW 2.3 mph 4.0 mph 55 % 0.00 in
10:08 79.8 °F 62.2 °F 29.95 in SW 2.0 mph 5.0 mph 55 % 0.00 in
10:13 80.4 °F 63.8 °F 29.95 in WSW 3.3 mph 4.0 mph 57 % 0.00 in
10:18 81.0 °F 62.3 °F 29.95 in West 4.6 mph 5.8 mph 53 % 0.00 in
10:24 81.4 °F 62.6 °F 29.95 in West 6.5 mph 8.0 mph 53 % 0.00 in
10:29 81.9 °F 63.6 °F 29.95 in WSW 1.8 mph 4.0 mph 54 % 0.00 in
10:34 82.1 °F 62.7 °F 29.95 in WSW 2.6 mph 3.5 mph 52 % 0.00 in
10:39 82.7 °F 62.7 °F 29.94 in SW 5.9 mph 6.9 mph 51 % 0.00 in
10:44 83.1 °F 63.1 °F 29.94 in SW 2.0 mph 5.0 mph 51 % 0.00 in
10:49 83.5 °F 63.5 °F 29.94 in SW 3.5 mph 6.0 mph 51 % 0.00 in
10:54 84.1 °F 63.5 °F 29.94 in WNW 1.4 mph 3.5 mph 50 % 0.00 in
10:59 84.5 °F 64.9 °F 29.94 in West 2.9 mph 5.8 mph 52 % 0.00 in
11:04 84.9 °F 63.0 °F 29.94 in West 4.2 mph 8.1 mph 48 % 0.00 in
11:09 85.3 °F 62.8 °F 29.94 in SSW 2.7 mph 5.8 mph 47 % 0.00 in
11:14 85.7 °F 63.8 °F 29.93 in West 1.5 mph 8.1 mph 48 % 0.00 in
11:19 86.6 °F 65.2 °F 29.93 in SSW 1.6 mph 3.5 mph 49 % 0.00 in
11:24 87.1 °F 63.2 °F 29.94 in WSW 3.3 mph 5.8 mph 45 % 0.00 in
11:29 87.4 °F 64.1 °F 29.93 in SW 3.6 mph 7.0 mph 46 % 0.00 in
11:34 87.7 °F 62.4 °F 29.93 in WSW 5.2 mph 6.9 mph 43 % 0.00 in
11:39 88.0 °F 64.6 °F 29.94 in North 3.5 mph 8.1 mph 46 % 0.00 in
11:44 88.2 °F 64.2 °F 29.93 in WNW 5.0 mph 9.2 mph 45 % 0.00 in
11:49 88.5 °F 63.8 °F 29.93 in SW 3.3 mph 6.9 mph 44 % 0.00 in
11:54 88.7 °F 64.0 °F 29.92 in WSW 5.0 mph 8.1 mph 44 % 0.00 in
11:59 88.9 °F 65.4 °F 29.92 in SW 4.1 mph 8.1 mph 46 % 0.00 in
12:04 89.0 °F 62.9 °F 29.92 in SW 5.9 mph 11.5 mph 42 % 0.00 in
12:09 89.1 °F 65.0 °F 29.92 in SSW 1.0 mph 3.5 mph 45 % 0.00 in
12:14 89.6 °F 66.7 °F 29.92 in SW 3.8 mph 7.0 mph 47 % 0.00 in
12:17 89.9 °F 65.1 °F 29.91 in West 1.4 mph 8.1 mph 44 % 0.00 in
12:22 90.1 °F 63.9 °F 29.91 in WSW 3.6 mph 6.9 mph 42 % 0.00 in
12:27 90.3 °F 64.8 °F 29.91 in SW 5.0 mph 6.9 mph 43 % 0.00 in
12:32 90.6 °F 66.3 °F 29.91 in SSW 4.3 mph 7.0 mph 45 % 0.00 in
12:37 90.7 °F 65.1 °F 29.91 in SW 4.0 mph 6.9 mph 43 % 0.00 in
12:42 90.8 °F 65.9 °F 29.91 in SW 2.6 mph 9.0 mph 44 % 0.00 in
12:47 91.1 °F 66.2 °F 29.90 in SW 5.1 mph 9.2 mph 44 % 0.00 in
12:52 91.2 °F 64.9 °F 29.90 in SE 0.9 mph 8.1 mph 42 % 0.00 in
12:57 91.5 °F 67.2 °F 29.90 in SSW 3.3 mph 5.8 mph 45 % 0.00 in
13:02 91.6 °F 64.6 °F 29.90 in SW 5.8 mph 9.0 mph 41 % 0.00 in
13:07 91.4 °F 64.4 °F 29.90 in SW 4.6 mph 6.9 mph 41 % 0.00 in
13:12 91.5 °F 65.8 °F 29.90 in SW 3.0 mph 4.0 mph 43 % 0.00 in
13:17 91.6 °F 66.6 °F 29.90 in SW 4.3 mph 13.0 mph 44 % 0.00 in
13:22 91.6 °F 65.9 °F 29.90 in SSW 5.4 mph 6.0 mph 43 % 0.00 in
13:27 91.7 °F 66.7 °F 29.90 in SSW 3.2 mph 8.1 mph 44 % 0.00 in
13:32 91.8 °F 66.1 °F 29.90 in SSW 5.5 mph 7.0 mph 43 % 0.00 in
13:37 91.8 °F 65.4 °F 29.89 in SW 3.0 mph 9.0 mph 42 % 0.00 in
13:42 91.9 °F 64.8 °F 29.89 in South 3.6 mph 6.9 mph 41 % 0.00 in
13:47 91.6 °F 66.6 °F 29.89 in South 3.7 mph 5.8 mph 44 % 0.00 in
13:57 91.7 °F 66.0 °F 29.89 in SSW 1.2 mph 3.5 mph 43 % 0.00 in
14:02 91.6 °F 65.9 °F 29.89 in South 5.1 mph 6.9 mph 43 % 0.00 in
14:07 91.7 °F 66.0 °F 29.89 in SW 3.2 mph 6.9 mph 43 % 0.00 in
14:12 91.6 °F 65.3 °F 29.88 in SSW 3.2 mph 3.5 mph 42 % 0.00 in
14:17 91.6 °F 65.3 °F 29.88 in SSW 4.5 mph 6.9 mph 42 % 0.00 in
14:22 91.6 °F 65.9 °F 29.88 in SSW 4.5 mph 7.0 mph 43 % 0.00 in
14:28 91.5 °F 66.5 °F 29.88 in SSE 3.6 mph 8.1 mph 44 % 0.00 in
14:33 91.3 °F 66.3 °F 29.88 in SW 3.2 mph 3.5 mph 44 % 0.00 in
14:38 91.4 °F 66.4 °F 29.88 in WSW 2.5 mph 3.5 mph 44 % 0.00 in
14:43 91.3 °F 67.0 °F 29.87 in SSW 1.1 mph 4.6 mph 45 % 0.00 in
14:48 91.4 °F 66.4 °F 29.88 in SSW 5.9 mph 6.9 mph 44 % 0.00 in
14:53 91.5 °F 66.5 °F 29.88 in SSE 3.7 mph 9.2 mph 44 % 0.00 in
14:58 91.5 °F 67.2 °F 29.87 in South 1.2 mph 3.5 mph 45 % 0.00 in
15:03 91.6 °F 67.3 °F 29.86 in SSW 0.4 mph 4.6 mph 45 % 0.00 in
15:08 91.7 °F 67.3 °F 29.87 in SSW 4.6 mph 7.0 mph 45 % 0.00 in
15:10 91.7 °F 66.7 °F 29.86 in SSW 2.5 mph 6.9 mph 44 % 0.00 in
15:15 91.7 °F 66.0 °F 29.86 in South 5.5 mph 9.2 mph 43 % 0.00 in
15:20 91.5 °F 65.8 °F 29.86 in South 6.5 mph 11.5 mph 43 % 0.00 in
15:25 91.3 °F 67.0 °F 29.86 in SW 4.0 mph 8.1 mph 45 % 0.00 in
15:30 91.1 °F 65.5 °F 29.85 in SE 2.2 mph 5.8 mph 43 % 0.00 in
15:35 91.0 °F 67.3 °F 29.85 in SSW 1.8 mph 4.0 mph 46 % 0.00 in
15:40 90.8 °F 65.9 °F 29.86 in SSW 1.8 mph 3.5 mph 44 % 0.00 in
15:45 90.5 °F 66.3 °F 29.85 in SSW 4.4 mph 5.8 mph 45 % 0.00 in
15:50 90.2 °F 66.6 °F 29.85 in SW 3.9 mph 5.8 mph 46 % 0.00 in
15:55 90.1 °F 66.5 °F 29.86 in SSW 7.0 mph 13.0 mph 46 % 0.00 in
16:00 90.1 °F 66.5 °F 29.86 in SSW 3.1 mph 6.9 mph 46 % 0.00 in
16:05 90.0 °F 66.4 °F 29.86 in SW 5.0 mph 7.0 mph 46 % 0.00 in
16:10 89.9 °F 66.3 °F 29.85 in South 3.8 mph 11.5 mph 46 % 0.00 in
16:15 89.8 °F 66.3 °F 29.85 in SSW 5.6 mph 9.2 mph 46 % 0.00 in
16:20 89.6 °F 66.7 °F 29.85 in SSE 3.3 mph 5.8 mph 47 % 0.00 in
16:25 89.3 °F 66.4 °F 29.85 in SSW 2.6 mph 5.0 mph 47 % 0.00 in
16:30 89.1 °F 66.2 °F 29.85 in South 6.8 mph 8.1 mph 47 % 0.00 in
16:35 89.0 °F 66.8 °F 29.85 in SW 1.4 mph 3.5 mph 48 % 0.00 in
16:40 89.0 °F 66.2 °F 29.85 in SSW 4.6 mph 8.1 mph 47 % 0.00 in
16:45 88.8 °F 66.6 °F 29.85 in South 0.4 mph 2.3 mph 48 % 0.00 in
16:50 88.7 °F 67.1 °F 29.85 in South 2.1 mph 6.9 mph 49 % 0.00 in
16:55 88.6 °F 67.0 °F 29.85 in SE 2.7 mph 5.8 mph 49 % 0.00 in
17:00 88.2 °F 66.0 °F 29.85 in South 3.5 mph 11.5 mph 48 % 0.00 in
17:05 88.1 °F 66.5 °F 29.85 in SW 1.2 mph 3.5 mph 49 % 0.00 in
17:10 87.6 °F 66.7 °F 29.85 in SSE 2.8 mph 6.9 mph 50 % 0.00 in
17:15 87.3 °F 66.4 °F 29.85 in SSW 2.7 mph 4.6 mph 50 % 0.00 in
17:20 87.0 °F 66.7 °F 29.85 in SE 3.9 mph 8.1 mph 51 % 0.00 in
17:25 86.7 °F 66.4 °F 29.85 in SSW 1.2 mph 5.0 mph 51 % 0.00 in
17:31 86.5 °F 66.2 °F 29.85 in SSW 1.0 mph 6.0 mph 51 % 0.00 in
17:36 86.3 °F 66.0 °F 29.85 in SSW 2.0 mph 6.0 mph 51 % 0.00 in
17:41 86.0 °F 66.4 °F 29.85 in South 2.0 mph 6.0 mph 52 % 0.00 in
17:46 85.7 °F 66.1 °F 29.85 in SSW 6.0 mph 8.0 mph 52 % 0.00 in
17:51 85.4 °F 65.8 °F 29.85 in SSW 5.0 mph 8.0 mph 52 % 0.00 in
17:56 85.0 °F 66.0 °F 29.85 in SSW 5.0 mph 12.0 mph 53 % 0.00 in
18:01 84.7 °F 65.7 °F 29.85 in SSW 4.4 mph 6.9 mph 53 % 0.00 in
18:05 84.3 °F 65.8 °F 29.85 in SSW 3.2 mph 6.9 mph 54 % 0.00 in
18:10 83.9 °F 66.0 °F 29.85 in SSW 3.8 mph 4.0 mph 55 % 0.00 in
18:11 83.9 °F 66.0 °F 29.84 in SSW 3.6 mph 9.2 mph 55 % 0.00 in
18:16 83.5 °F 65.6 °F 29.84 in SW 4.8 mph 8.1 mph 55 % 0.00 in
18:21 83.2 °F 65.9 °F 29.84 in South 2.7 mph 6.9 mph 56 % 0.00 in
18:26 82.9 °F 65.6 °F 29.84 in South 2.6 mph 4.6 mph 56 % 0.00 in
18:31 82.7 °F 65.9 °F 29.84 in SW 3.5 mph 5.8 mph 57 % 0.00 in
18:36 82.5 °F 65.7 °F 29.84 in SSW 3.1 mph 5.8 mph 57 % 0.00 in
18:41 82.3 °F 65.5 °F 29.84 in South 4.2 mph 6.9 mph 57 % 0.00 in
18:43 82.3 °F 65.5 °F 29.84 in South 1.7 mph 6.9 mph 57 % 0.00 in
18:46 82.2 °F 66.0 °F 29.84 in SSW 3.8 mph 6.0 mph 58 % 0.00 in
18:47 82.1 °F 65.9 °F 29.84 in SSW 4.6 mph 8.1 mph 58 % 0.00 in
18:52 81.9 °F 65.7 °F 29.84 in SW 1.4 mph 3.5 mph 58 % 0.00 in
18:57 81.7 °F 66.0 °F 29.85 in South 1.5 mph 3.5 mph 59 % 0.00 in
19:02 81.4 °F 65.7 °F 29.84 in SSW 2.7 mph 6.9 mph 59 % 0.00 in
19:07 81.2 °F 65.5 °F 29.85 in SSW 1.9 mph 3.5 mph 59 % 0.00 in
19:12 80.9 °F 65.7 °F 29.85 in SSE 1.4 mph 3.5 mph 60 % 0.00 in
19:17 80.7 °F 66.0 °F 29.85 in SSE 1.0 mph 3.5 mph 61 % 0.00 in
19:22 80.4 °F 65.7 °F 29.85 in SE 0.8 mph 2.3 mph 61 % 0.00 in
19:27 80.2 °F 65.5 °F 29.85 in South 1.1 mph 2.3 mph 61 % 0.00 in
19:32 79.8 °F 65.2 °F 29.85 in South 2.1 mph 3.5 mph 61 % 0.00 in
19:37 79.6 °F 65.4 °F 29.85 in South 1.6 mph 3.5 mph 62 % 0.00 in
19:42 79.2 °F 65.1 °F 29.85 in South 1.6 mph 3.5 mph 62 % 0.00 in
19:47 78.9 °F 64.8 °F 29.85 in SSE 1.1 mph 3.5 mph 62 % 0.00 in
19:52 78.6 °F 64.9 °F 29.85 in SW 1.0 mph 2.0 mph 63 % 0.00 in
19:58 78.4 °F 64.8 °F 29.85 in SSE 1.4 mph 5.8 mph 63 % 0.00 in
20:03 78.0 °F 64.8 °F 29.86 in SSW 0.4 mph 3.5 mph 64 % 0.00 in
20:08 77.8 °F 64.6 °F 29.86 in SSW 0.2 mph 1.2 mph 64 % 0.00 in
20:13 77.6 °F 64.9 °F 29.86 in SE 0.6 mph 3.5 mph 65 % 0.00 in
20:18 77.2 °F 64.5 °F 29.86 in SE 0.1 mph 2.3 mph 65 % 0.00 in
20:23 76.9 °F 64.7 °F 29.86 in SW 0.4 mph 2.3 mph 66 % 0.00 in
20:28 76.7 °F 64.5 °F 29.86 in SSW 0.5 mph 3.5 mph 66 % 0.00 in
20:33 76.4 °F 64.6 °F 29.86 in South 0.3 mph 2.3 mph 67 % 0.00 in
20:38 76.1 °F 64.3 °F 29.86 in South 0.6 mph 2.3 mph 67 % 0.00 in
20:43 75.9 °F 64.2 °F 29.86 in South 2.1 mph 3.5 mph 67 % 0.00 in
20:48 75.7 °F 64.4 °F 29.86 in WSW 1.0 mph 2.3 mph 68 % 0.00 in
20:53 75.5 °F 64.2 °F 29.87 in Calm   3.5 mph 68 % 0.00 in
20:58 75.4 °F 64.5 °F 29.87 in WSW 0.9 mph 2.3 mph 69 % 0.00 in
21:03 75.1 °F 64.2 °F 29.87 in WSW 0.4 mph 2.3 mph 69 % 0.00 in
21:08 74.9 °F 64.0 °F 29.87 in WSW 0.9 mph 3.5 mph 69 % 0.00 in
21:13 74.7 °F 64.3 °F 29.87 in SSW 2.0 mph 3.5 mph 70 % 0.00 in
21:18 74.6 °F 64.2 °F 29.87 in SSE 1.2 mph 3.5 mph 70 % 0.00 in
21:23 74.5 °F 64.5 °F 29.87 in SSW 4.4 mph 4.4 mph 71 % 0.00 in
21:28 74.5 °F 64.5 °F 29.87 in WSW 1.1 mph 6.9 mph 71 % 0.00 in
21:33 74.4 °F 64.4 °F 29.87 in SW 2.0 mph 5.0 mph 71 % 0.00 in
21:38 74.5 °F 64.5 °F 29.88 in SW 0.9 mph 3.5 mph 71 % 0.00 in
21:43 74.5 °F 64.5 °F 29.88 in SW 3.4 mph 3.5 mph 71 % 0.00 in
21:49 74.6 °F 64.6 °F 29.88 in SW 2.4 mph 3.5 mph 71 % 0.00 in
21:54 74.7 °F 64.7 °F 29.88 in SSW 2.8 mph 3.5 mph 71 % 0.00 in
21:59 74.7 °F 64.7 °F 29.88 in SW 3.1 mph 6.9 mph 71 % 0.00 in
22:04 74.8 °F 64.8 °F 29.88 in SW 1.7 mph 3.5 mph 71 % 0.00 in
22:09 75.0 °F 64.5 °F 29.88 in SSW 3.1 mph 4.6 mph 70 % 0.00 in
22:14 75.0 °F 64.5 °F 29.88 in WSW 1.5 mph 4.6 mph 70 % 0.00 in
22:19 75.2 °F 64.7 °F 29.88 in WSW 0.9 mph 2.3 mph 70 % 0.00 in
22:24 75.3 °F 64.8 °F 29.88 in WSW 1.6 mph 3.5 mph 70 % 0.00 in
22:29 75.5 °F 65.0 °F 29.88 in West 3.0 mph 4.6 mph 70 % 0.00 in
22:34 75.6 °F 65.1 °F 29.88 in SSW 2.2 mph 6.0 mph 70 % 0.00 in
22:39 75.8 °F 64.9 °F 29.88 in WSW 2.2 mph 5.8 mph 69 % 0.00 in
22:44 75.9 °F 65.0 °F 29.88 in WNW 2.9 mph 5.8 mph 69 % 0.00 in
22:49 76.0 °F 65.1 °F 29.88 in WSW 3.9 mph 8.0 mph 69 % 0.00 in
22:54 76.2 °F 65.3 °F 29.88 in WSW 3.0 mph 6.9 mph 69 % 0.00 in
22:59 76.3 °F 65.4 °F 29.88 in SW 4.5 mph 6.9 mph 69 % 0.00 in
23:04 76.3 °F 65.8 °F 29.88 in SW 3.4 mph 6.0 mph 70 % 0.00 in
23:09 76.3 °F 65.8 °F 29.88 in WSW 2.1 mph 5.8 mph 70 % 0.00 in
23:14 76.3 °F 65.8 °F 29.88 in West 1.9 mph 3.5 mph 70 % 0.00 in
23:19 76.3 °F 65.8 °F 29.88 in SSW 2.6 mph 3.5 mph 70 % 0.00 in
23:24 76.4 °F 66.3 °F 29.88 in SSW 4.6 mph 8.1 mph 71 % 0.00 in
23:29 76.4 °F 66.3 °F 29.88 in SSW 4.5 mph 11.5 mph 71 % 0.00 in
23:34 76.4 °F 66.3 °F 29.88 in SSW 2.1 mph 5.0 mph 71 % 0.00 in
23:44 76.5 °F 66.4 °F 29.88 in SW 3.1 mph 6.9 mph 71 % 0.00 in
23:49 76.5 °F 66.4 °F 29.88 in WSW 3.5 mph 5.8 mph 71 % 0.00 in
23:50 76.5 °F 66.4 °F 29.88 in WSW 2.0 mph 5.8 mph 71 % 0.00 in
23:55 76.5 °F 66.4 °F 29.88 in WSW 1.7 mph 8.1 mph 71 % 0.00 in
Crab Meadow Weather
Compliments of Weather Underground - 3 mb

Script developed by  Jim McMurry - jmcmurry@mwt.net Adapted for the template by  Wim van der Kuil - Leuven-Template.eu

Weather Terms: Severe Thunderstorm Watch - Conditions are favorable for the development of severe thunderstorms in and close to the watch area. These watches are issued for large areas by the Storm Prediction Center in Norman, Oklahoma, and are usually valid for four to six hours.